Location: Stanford
(52.2833°N, 2.4333°W)
Time: 20:03:32
(UTC+00:00)

CREW DRAGON DEMO-1 DEB - Pass Details

Date: 22 January 2021
Orbit: 335 x 339 km, 51.6° (Epoch: 27 February)

Event Time Altitude Azimuth Distance (km) Brightness Sun altitude
Rises 18:14:09 0° 281° (W) 2,173 8.0 -14.2°
Reaches altitude 10° 18:16:16 10° 272° (W) 1,322 6.8 -14.5°
Maximum altitude 18:19:00 35° 204° (SSW) 585 4.1 -14.9°
Enters shadow 18:20:53 17° 144° (SE) 997 4.7 -15.2°
